Time,TemperatureF,DewpointF,PressureIn,WindDirection,WindDirectionDegrees,WindSpeedMPH,WindSpeedGustMPH,Humidity,HourlyPrecipIn,Conditions,Clouds,dailyrainin,SoftwareType,DateUTC
2013-04-24 07:27:00,48.0,0.0,30.05,North,0,2.0,2.0,0,0.00,,,0.00,Weather View 32 v70,2013-04-24 11:27:00,
2013-04-24 07:28:00,48.2,0.0,30.05,North,0,0.0,3.0,0,0.00,,,0.00,Weather View 32 v70,2013-04-24 11:28:00,
2013-04-24 07:29:00,48.2,0.0,30.05,North,0,1.0,3.0,0,0.00,,,0.00,Weather View 32 v70,2013-04-24 11:29:00,
2013-04-24 07:34:00,48.4,0.0,30.05,North,0,2.0,3.0,0,0.00,,,0.00,Weather View 32 v70,2013-04-24 11:34:00,
2013-04-24 07:39:00,48.9,0.0,30.05,North,0,1.0,5.0,0,0.00,,,0.00,Weather View 32 v70,2013-04-24 11:39:00,
2013-04-24 07:45:00,49.1,0.0,30.06,North,0,2.0,5.0,0,0.00,,,0.00,Weather View 32 v70,2013-04-24 11:45:00,
2013-04-24 07:50:00,49.6,0.0,30.06,West,270,3.0,5.0,0,0.00,,,0.00,Weather View 32 v70,2013-04-24 11:50:00,
2013-04-24 07:55:00,49.8,0.0,30.06,South,180,3.0,5.0,0,0.00,,,0.00,Weather View 32 v70,2013-04-24 11:55:00,
2013-04-24 08:00:00,50.0,0.0,30.06,West,270,1.0,6.0,0,0.00,,,0.00,Weather View 32 v70,2013-04-24 12:00:00,
2013-04-24 08:05:00,50.5,0.0,30.06,South,180,4.0,6.0,0,0.00,,,0.00,Weather View 32 v70,2013-04-24 12:05:00,
2013-04-24 08:10:00,50.7,0.0,30.05,West,270,0.0,6.0,0,0.00,,,0.00,Weather View 32 v70,2013-04-24 12:10:00,
2013-04-24 08:15:00,51.3,0.0,30.05,West,270,2.0,7.0,0,0.00,,,0.00,Weather View 32 v70,2013-04-24 12:15:00,
2013-04-24 08:20:00,51.4,0.0,30.06,West,270,1.0,7.0,0,0.00,,,0.00,Weather View 32 v70,2013-04-24 12:20:00,
2013-04-24 08:25:00,51.8,0.0,30.04,North,0,4.0,7.0,0,0.00,,,0.00,Weather View 32 v70,2013-04-24 12:25:00,
2013-04-24 08:30:00,52.3,0.0,30.05,North,0,5.0,8.0,0,0.00,,,0.00,Weather View 32 v70,2013-04-24 12:30:00,
2013-04-24 08:35:00,52.9,0.0,30.07,West,270,3.0,10.0,0,0.00,,,0.00,Weather View 32 v70,2013-04-24 12:35:00,
2013-04-24 08:40:00,53.1,0.0,30.06,North,0,4.0,10.0,0,0.00,,,0.00,Weather View 32 v70,2013-04-24 12:40:00,
2013-04-24 08:45:00,53.4,0.0,30.05,West,270,4.0,10.0,0,0.00,,,0.00,Weather View 32 v70,2013-04-24 12:45:00,
2013-04-24 08:50:00,54.1,0.0,30.06,North,0,0.0,10.0,0,0.00,,,0.00,Weather View 32 v70,2013-04-24 12:50:00,
2013-04-24 08:55:00,54.5,0.0,30.07,WNW,293,1.0,10.0,0,0.00,,,0.00,Weather View 32 v70,2013-04-24 12:55:00,
2013-04-24 09:00:00,55.2,0.0,30.07,South,180,5.0,10.0,0,0.00,,,0.00,Weather View 32 v70,2013-04-24 13:00:00,
2013-04-24 09:05:00,55.9,0.0,30.06,West,270,2.0,10.0,0,0.00,,,0.00,Weather View 32 v70,2013-04-24 13:05:00,
2013-04-24 09:10:00,56.5,0.0,30.06,South,180,5.0,10.0,0,0.00,,,0.00,Weather View 32 v70,2013-04-24 13:10:00,
2013-04-24 09:15:00,57.2,0.0,30.05,WNW,293,0.0,10.0,0,0.00,,,0.00,Weather View 32 v70,2013-04-24 13:15:00,
2013-04-24 09:20:00,57.9,0.0,30.05,West,270,7.0,10.0,0,0.00,,,0.00,Weather View 32 v70,2013-04-24 13:20:00,
2013-04-24 09:26:00,59.0,0.0,30.04,South,180,2.0,10.0,0,0.00,,,0.00,Weather View 32 v70,2013-04-24 13:26:00,
2013-04-24 09:31:00,60.3,0.0,30.05,West,270,5.0,10.0,0,0.00,,,0.00,Weather View 32 v70,2013-04-24 13:31:00,
2013-04-24 09:36:00,61.5,0.0,30.05,West,270,2.0,10.0,0,0.00,,,0.00,Weather View 32 v70,2013-04-24 13:36:00,
2013-04-24 09:41:00,63.1,0.0,30.05,North,0,3.0,10.0,0,0.00,,,0.00,Weather View 32 v70,2013-04-24 13:41:00,
2013-04-24 09:46:00,64.2,0.0,30.04,South,180,2.0,10.0,0,0.00,,,0.00,Weather View 32 v70,2013-04-24 13:46:00,
2013-04-24 09:51:00,65.3,0.0,30.05,West,270,1.0,13.0,0,0.00,,,0.00,Weather View 32 v70,2013-04-24 13:51:00,
2013-04-24 09:57:00,66.6,0.0,30.04,South,180,4.0,13.0,0,0.01,,,0.00,Weather View 32 v70,2013-04-24 13:57:00,
2013-04-24 10:02:00,67.5,0.0,30.05,North,0,7.0,13.0,0,0.00,,,0.00,Weather View 32 v70,2013-04-24 14:02:00,
2013-04-24 10:07:00,67.5,0.0,30.05,South,180,7.0,13.0,0,0.00,,,0.00,Weather View 32 v70,2013-04-24 14:07:00,
2013-04-24 10:12:00,68.0,0.0,30.04,West,270,4.0,13.0,0,0.00,,,0.00,Weather View 32 v70,2013-04-24 14:12:00,
2013-04-24 10:18:00,68.9,0.0,30.04,SSE,158,6.0,13.0,0,0.00,,,0.00,Weather View 32 v70,2013-04-24 14:18:00,
2013-04-24 10:23:00,69.3,0.0,30.05,South,180,5.0,13.0,0,0.00,,,0.00,Weather View 32 v70,2013-04-24 14:23:00,
2013-04-24 10:28:00,70.0,0.0,30.04,West,270,0.0,13.0,0,0.00,,,0.00,Weather View 32 v70,2013-04-24 14:28:00,
2013-04-24 10:33:00,70.5,0.0,30.05,West,270,5.0,13.0,0,0.00,,,0.00,Weather View 32 v70,2013-04-24 14:33:00,
2013-04-24 10:39:00,70.7,0.0,30.03,North,0,2.0,14.0,0,0.00,,,0.00,Weather View 32 v70,2013-04-24 14:39:00,
2013-04-24 10:44:00,71.1,0.0,30.03,North,0,4.0,14.0,0,0.00,,,0.00,Weather View 32 v70,2013-04-24 14:44:00,
2013-04-24 10:49:00,71.2,0.0,30.04,South,180,13.0,14.0,0,0.00,,,0.00,Weather View 32 v70,2013-04-24 14:49:00,
2013-04-24 10:54:00,70.9,0.0,30.03,North,0,11.0,16.0,0,0.00,,,0.00,Weather View 32 v70,2013-04-24 14:54:00,
2013-04-24 10:59:00,71.8,0.0,30.03,West,270,1.0,16.0,0,0.00,,,0.00,Weather View 32 v70,2013-04-24 14:59:00,
2013-04-24 11:04:00,71.6,0.0,30.04,SSE,158,9.0,16.0,0,0.00,,,0.00,Weather View 32 v70,2013-04-24 15:04:00,
2013-04-24 11:10:00,71.8,0.0,30.03,North,0,1.0,16.0,0,0.00,,,0.00,Weather View 32 v70,2013-04-24 15:10:00,
2013-04-24 11:15:00,72.9,0.0,30.03,North,0,4.0,16.0,0,0.00,,,0.00,Weather View 32 v70,2013-04-24 15:15:00,
2013-04-24 11:20:00,71.8,0.0,30.03,South,180,1.0,16.0,0,0.00,,,0.00,Weather View 32 v70,2013-04-24 15:20:00,
2013-04-24 11:30:00,71.8,0.0,30.02,North,0,3.0,16.0,0,0.00,,,0.00,Weather View 32 v70,2013-04-24 15:30:00,
2013-04-24 11:35:00,72.7,0.0,30.05,South,180,2.0,16.0,0,0.00,,,0.00,Weather View 32 v70,2013-04-24 15:35:00,
2013-04-24 11:40:00,72.9,0.0,30.02,South,180,9.0,16.0,0,0.00,,,0.00,Weather View 32 v70,2013-04-24 15:40:00,
2013-04-24 11:45:00,73.0,0.0,30.04,WNW,293,2.0,16.0,0,0.00,,,0.00,Weather View 32 v70,2013-04-24 15:45:00,
2013-04-24 11:50:00,73.0,0.0,30.02,West,270,0.0,16.0,0,0.00,,,0.00,Weather View 32 v70,2013-04-24 15:50:00,
2013-04-24 11:55:00,74.1,0.0,30.03,West,270,1.0,15.0,0,0.00,,,0.00,Weather View 32 v70,2013-04-24 15:55:00,
2013-04-24 12:00:00,74.7,0.0,30.02,North,0,2.0,15.0,0,0.00,,,0.00,Weather View 32 v70,2013-04-24 16:00:00,
2013-04-24 12:05:00,75.0,0.0,30.01,North,0,3.0,15.0,0,0.00,,,0.00,Weather View 32 v70,2013-04-24 16:05:00,
2013-04-24 12:10:00,74.8,0.0,30.01,South,180,6.0,15.0,0,0.00,,,0.00,Weather View 32 v70,2013-04-24 16:10:00,
2013-04-24 12:15:00,75.0,0.0,30.01,West,270,3.0,15.0,0,0.00,,,0.00,Weather View 32 v70,2013-04-24 16:15:00,
2013-04-24 12:20:00,74.8,0.0,29.98,North,0,3.0,15.0,0,0.00,,,0.00,Weather View 32 v70,2013-04-24 16:20:00,
2013-04-24 12:25:00,74.7,0.0,30.00,South,180,11.0,15.0,0,0.00,,,0.00,Weather View 32 v70,2013-04-24 16:25:00,
2013-04-24 12:30:00,74.1,0.0,30.01,West,270,2.0,13.0,0,0.00,,,0.00,Weather View 32 v70,2013-04-24 16:30:00,
2013-04-24 12:35:00,75.0,0.0,30.00,South,180,4.0,13.0,0,0.00,,,0.00,Weather View 32 v70,2013-04-24 16:35:00,
2013-04-24 12:40:00,75.9,0.0,30.00,North,0,4.0,13.0,0,0.00,,,0.00,Weather View 32 v70,2013-04-24 16:40:00,
2013-04-24 12:45:00,76.1,0.0,30.01,WNW,293,2.0,13.0,0,0.00,,,0.00,Weather View 32 v70,2013-04-24 16:45:00,
2013-04-24 12:50:00,76.1,0.0,29.98,South,180,7.0,13.0,0,0.00,,,0.00,Weather View 32 v70,2013-04-24 16:50:00,
2013-04-24 12:55:00,77.0,0.0,30.00,West,270,1.0,13.0,0,0.00,,,0.00,Weather View 32 v70,2013-04-24 16:55:00,
2013-04-24 13:00:00,77.4,0.0,29.99,North,0,4.0,13.0,0,0.00,,,0.00,Weather View 32 v70,2013-04-24 17:00:00,
2013-04-24 13:05:00,77.5,0.0,29.99,North,0,8.0,14.0,0,0.00,,,0.00,Weather View 32 v70,2013-04-24 17:05:00,
2013-04-24 13:10:00,77.0,0.0,30.00,West,270,4.0,17.0,0,0.00,,,0.00,Weather View 32 v70,2013-04-24 17:10:00,
2013-04-24 13:16:00,77.2,0.0,30.00,West,270,9.0,17.0,0,0.00,,,0.00,Weather View 32 v70,2013-04-24 17:16:00,
2013-04-24 13:21:00,77.0,0.0,30.00,South,180,2.0,17.0,0,0.00,,,0.00,Weather View 32 v70,2013-04-24 17:21:00,
2013-04-24 13:26:00,77.7,0.0,29.99,South,180,10.0,17.0,0,0.00,,,0.00,Weather View 32 v70,2013-04-24 17:26:00,
2013-04-24 13:31:00,76.5,0.0,29.98,West,270,3.0,17.0,0,0.00,,,0.00,Weather View 32 v70,2013-04-24 17:31:00,
2013-04-24 13:36:00,75.2,0.0,30.00,West,270,1.0,17.0,0,0.00,,,0.00,Weather View 32 v70,2013-04-24 17:36:00,
2013-04-24 13:41:00,75.7,0.0,29.98,North,0,8.0,17.0,0,0.00,,,0.00,Weather View 32 v70,2013-04-24 17:41:00,
2013-04-24 13:47:00,76.6,0.0,29.98,South,180,5.0,17.0,0,0.00,,,0.00,Weather View 32 v70,2013-04-24 17:47:00,
2013-04-24 13:52:00,77.2,0.0,30.01,SSE,158,9.0,17.0,0,0.00,,,0.00,Weather View 32 v70,2013-04-24 17:52:00,
2013-04-24 13:57:00,78.1,0.0,30.01,WNW,293,4.0,17.0,0,0.00,,,0.00,Weather View 32 v70,2013-04-24 17:57:00,
2013-04-24 14:02:00,77.9,0.0,30.00,WNW,293,5.0,17.0,0,0.00,,,0.00,Weather View 32 v70,2013-04-24 18:02:00,
2013-04-24 14:07:00,77.9,0.0,29.98,West,270,6.0,17.0,0,0.00,,,0.00,Weather View 32 v70,2013-04-24 18:07:00,
2013-04-24 14:12:00,77.5,0.0,29.99,South,180,2.0,16.0,0,0.00,,,0.00,Weather View 32 v70,2013-04-24 18:12:00,
2013-04-24 14:17:00,78.3,0.0,29.98,West,270,3.0,16.0,0,0.00,,,0.00,Weather View 32 v70,2013-04-24 18:17:00,
2013-04-24 14:22:00,78.4,0.0,29.99,WNW,293,0.0,16.0,0,0.00,,,0.00,Weather View 32 v70,2013-04-24 18:22:00,
2013-04-24 14:27:00,77.9,0.0,29.99,WNW,293,3.0,16.0,0,0.00,,,0.00,Weather View 32 v70,2013-04-24 18:27:00,
2013-04-24 14:32:00,78.1,0.0,29.96,WNW,293,5.0,16.0,0,0.00,,,0.00,Weather View 32 v70,2013-04-24 18:32:00,
2013-04-24 14:37:00,78.1,0.0,29.97,WNW,293,4.0,19.0,0,0.00,,,0.00,Weather View 32 v70,2013-04-24 18:37:00,
2013-04-24 14:43:00,78.6,0.0,29.96,WNW,293,1.0,19.0,0,0.00,,,0.00,Weather View 32 v70,2013-04-24 18:43:00,
2013-04-24 14:48:00,78.6,0.0,29.98,South,180,4.0,19.0,0,0.00,,,0.00,Weather View 32 v70,2013-04-24 18:48:00,
2013-04-24 14:53:00,79.3,0.0,29.95,North,0,9.0,19.0,0,0.00,,,0.00,Weather View 32 v70,2013-04-24 18:53:00,
2013-04-24 14:58:00,78.8,0.0,29.96,West,270,4.0,19.0,0,0.00,,,0.00,Weather View 32 v70,2013-04-24 18:58:00,
2013-04-24 15:03:00,77.9,0.0,29.95,South,180,5.0,19.0,0,0.00,,,0.00,Weather View 32 v70,2013-04-24 19:03:00,
2013-04-24 15:08:00,77.0,0.0,29.95,North,0,7.0,19.0,0,0.00,,,0.00,Weather View 32 v70,2013-04-24 19:08:00,
2013-04-24 15:13:00,76.8,0.0,29.95,West,270,3.0,19.0,0,0.00,,,0.00,Weather View 32 v70,2013-04-24 19:13:00,
2013-04-24 15:18:00,77.0,0.0,29.95,West,270,2.0,19.0,0,0.00,,,0.00,Weather View 32 v70,2013-04-24 19:18:00,
2013-04-24 15:24:00,77.0,0.0,29.96,North,0,7.0,19.0,0,0.00,,,0.00,Weather View 32 v70,2013-04-24 19:24:00,
2013-04-24 15:29:00,76.8,0.0,29.95,West,270,15.0,19.0,0,0.00,,,0.00,Weather View 32 v70,2013-04-24 19:29:00,
2013-04-24 15:34:00,77.2,0.0,29.93,South,180,5.0,19.0,0,0.00,,,0.00,Weather View 32 v70,2013-04-24 19:34:00,
2013-04-24 15:39:00,77.5,0.0,29.95,West,270,1.0,17.0,0,0.00,,,0.00,Weather View 32 v70,2013-04-24 19:39:00,
2013-04-24 15:44:00,78.6,0.0,29.93,North,0,6.0,17.0,0,0.00,,,0.00,Weather View 32 v70,2013-04-24 19:44:00,
2013-04-24 15:49:00,78.6,0.0,29.94,West,270,9.0,18.0,0,0.00,,,0.00,Weather View 32 v70,2013-04-24 19:49:00,
2013-04-24 15:54:00,77.5,0.0,29.94,South,180,4.0,18.0,0,0.00,,,0.00,Weather View 32 v70,2013-04-24 19:54:00,
2013-04-24 16:00:00,76.3,0.0,29.94,West,270,3.0,18.0,0,0.00,,,0.00,Weather View 32 v70,2013-04-24 20:00:00,
2013-04-24 16:05:00,76.5,0.0,29.94,ESE,113,3.0,18.0,0,0.00,,,0.00,Weather View 32 v70,2013-04-24 20:05:00,
2013-04-24 16:10:00,76.1,0.0,29.95,WNW,293,3.0,18.0,0,0.00,,,0.00,Weather View 32 v70,2013-04-24 20:10:00,
2013-04-24 16:15:00,76.6,0.0,29.94,South,180,10.0,18.0,0,0.00,,,0.00,Weather View 32 v70,2013-04-24 20:15:00,
2013-04-24 16:20:00,76.1,0.0,29.93,SSE,158,10.0,18.0,0,0.00,,,0.00,Weather View 32 v70,2013-04-24 20:20:00,
2013-04-24 16:25:00,76.1,0.0,29.94,SSE,158,3.0,18.0,0,0.00,,,0.00,Weather View 32 v70,2013-04-24 20:25:00,
2013-04-24 16:30:00,75.7,0.0,29.95,South,180,5.0,18.0,0,0.00,,,0.00,Weather View 32 v70,2013-04-24 20:30:00,
2013-04-24 16:35:00,75.4,0.0,29.94,South,180,5.0,18.0,0,0.00,,,0.00,Weather View 32 v70,2013-04-24 20:35:00,
2013-04-24 16:40:00,75.0,0.0,29.94,North,0,5.0,18.0,0,0.00,,,0.00,Weather View 32 v70,2013-04-24 20:40:00,
2013-04-24 16:45:00,74.7,0.0,29.94,South,180,5.0,18.0,0,0.00,,,0.00,Weather View 32 v70,2013-04-24 20:45:00,
2013-04-24 16:50:00,74.7,0.0,29.92,SSE,158,5.0,17.0,0,0.00,,,0.00,Weather View 32 v70,2013-04-24 20:50:00,
2013-04-24 16:55:00,75.2,0.0,29.93,West,270,3.0,17.0,0,0.00,,,0.00,Weather View 32 v70,2013-04-24 20:55:00,
2013-04-24 17:00:00,76.6,0.0,29.91,West,270,3.0,17.0,0,0.00,,,0.00,Weather View 32 v70,2013-04-24 21:00:00,
2013-04-24 17:05:00,77.0,0.0,29.90,South,180,5.0,17.0,0,0.00,,,0.00,Weather View 32 v70,2013-04-24 21:05:00,
2013-04-24 17:10:00,76.3,0.0,29.92,North,0,10.0,17.0,0,0.00,,,0.00,Weather View 32 v70,2013-04-24 21:10:00,
2013-04-24 17:16:00,75.9,0.0,29.91,North,0,11.0,17.0,0,0.00,,,0.00,Weather View 32 v70,2013-04-24 21:16:00,
2013-04-24 17:21:00,75.6,0.0,29.91,North,0,10.0,17.0,0,0.00,,,0.00,Weather View 32 v70,2013-04-24 21:21:00,
2013-04-24 17:26:00,75.6,0.0,29.91,South,180,6.0,16.0,0,0.00,,,0.00,Weather View 32 v70,2013-04-24 21:26:00,
2013-04-24 17:31:00,75.2,0.0,29.90,South,180,9.0,16.0,0,0.00,,,0.00,Weather View 32 v70,2013-04-24 21:31:00,
2013-04-24 17:36:00,74.8,0.0,29.90,West,270,3.0,16.0,0,0.00,,,0.00,Weather View 32 v70,2013-04-24 21:36:00,
2013-04-24 17:41:00,74.3,0.0,29.89,South,180,9.0,16.0,0,0.00,,,0.00,Weather View 32 v70,2013-04-24 21:41:00,
2013-04-24 17:46:00,74.5,0.0,29.89,West,270,2.0,16.0,0,0.00,,,0.00,Weather View 32 v70,2013-04-24 21:46:00,
2013-04-24 17:51:00,74.3,0.0,29.88,South,180,7.0,16.0,0,0.00,,,0.00,Weather View 32 v70,2013-04-24 21:51:00,
2013-04-24 17:57:00,74.3,0.0,29.88,North,0,5.0,19.0,0,0.00,,,0.00,Weather View 32 v70,2013-04-24 21:57:00,
2013-04-24 18:02:00,74.1,0.0,29.90,SSE,158,3.0,19.0,0,0.00,,,0.00,Weather View 32 v70,2013-04-24 22:02:00,
2013-04-24 18:07:00,73.9,0.0,29.89,WNW,293,2.0,19.0,0,0.00,,,0.00,Weather View 32 v70,2013-04-24 22:07:00,
2013-04-24 18:12:00,73.8,0.0,29.89,South,180,7.0,19.0,0,0.00,,,0.00,Weather View 32 v70,2013-04-24 22:12:00,
2013-04-24 18:18:00,73.8,0.0,29.90,South,180,4.0,19.0,0,0.00,,,0.00,Weather View 32 v70,2013-04-24 22:18:00,
2013-04-24 18:23:00,73.6,0.0,29.90,West,270,5.0,19.0,0,0.00,,,0.00,Weather View 32 v70,2013-04-24 22:23:00,
2013-04-24 18:28:00,73.4,0.0,29.91,South,180,4.0,19.0,0,0.00,,,0.00,Weather View 32 v70,2013-04-24 22:28:00,
2013-04-24 18:33:00,72.9,0.0,29.90,South,180,2.0,19.0,0,0.00,,,0.00,Weather View 32 v70,2013-04-24 22:33:00,
2013-04-24 18:38:00,72.7,0.0,29.90,South,180,8.0,19.0,0,0.00,,,0.00,Weather View 32 v70,2013-04-24 22:38:00,
2013-04-24 18:43:00,72.5,0.0,29.91,West,270,2.0,19.0,0,0.00,,,0.00,Weather View 32 v70,2013-04-24 22:43:00,
2013-04-24 18:48:00,72.3,0.0,29.90,West,270,1.0,19.0,0,0.00,,,0.00,Weather View 32 v70,2013-04-24 22:48:00,
2013-04-24 18:54:00,72.0,0.0,29.91,WNW,293,3.0,19.0,0,0.00,,,0.00,Weather View 32 v70,2013-04-24 22:54:00,
2013-04-24 18:59:00,71.6,0.0,29.91,South,180,6.0,15.0,0,0.00,,,0.00,Weather View 32 v70,2013-04-24 22:59:00,
2013-04-24 19:04:00,71.2,0.0,29.90,SSE,158,9.0,15.0,0,0.00,,,0.00,Weather View 32 v70,2013-04-24 23:04:00,
2013-04-24 19:09:00,71.1,0.0,29.90,North,0,10.0,15.0,0,0.00,,,0.00,Weather View 32 v70,2013-04-24 23:09:00,
2013-04-24 19:14:00,70.5,0.0,29.89,South,180,4.0,15.0,0,0.00,,,0.00,Weather View 32 v70,2013-04-24 23:14:00,
2013-04-24 19:19:00,70.0,0.0,29.90,South,180,6.0,14.0,0,0.00,,,0.00,Weather View 32 v70,2013-04-24 23:19:00,
2013-04-24 19:24:00,70.0,0.0,29.90,West,270,4.0,14.0,0,0.00,,,0.00,Weather View 32 v70,2013-04-24 23:24:00,
2013-04-24 19:29:00,69.6,0.0,29.91,West,270,1.0,14.0,0,0.00,,,0.00,Weather View 32 v70,2013-04-24 23:29:00,
2013-04-24 19:34:00,69.3,0.0,29.91,West,270,0.0,14.0,0,0.00,,,0.00,Weather View 32 v70,2013-04-24 23:34:00,
2013-04-24 19:40:00,68.9,0.0,29.90,South,180,3.0,14.0,0,0.00,,,0.00,Weather View 32 v70,2013-04-24 23:40:00,
2013-04-24 19:45:00,68.7,0.0,29.90,West,270,2.0,14.0,0,0.00,,,0.00,Weather View 32 v70,2013-04-24 23:45:00,
2013-04-24 19:50:00,68.5,0.0,29.90,North,0,3.0,14.0,0,0.00,,,0.00,Weather View 32 v70,2013-04-24 23:50:00,
2013-04-24 19:55:00,68.2,0.0,29.90,West,270,1.0,14.0,0,0.00,,,0.00,Weather View 32 v70,2013-04-24 23:55:00,
2013-04-24 20:00:00,67.8,0.0,29.91,West,270,0.0,14.0,0,0.00,,,0.00,Weather View 32 v70,2013-04-25 00:00:00,
2013-04-24 20:05:00,67.6,0.0,29.91,West,270,2.0,14.0,0,0.00,,,0.00,Weather View 32 v70,2013-04-25 00:05:00,
2013-04-24 20:11:00,67.5,0.0,29.92,North,0,3.0,14.0,0,0.00,,,0.00,Weather View 32 v70,2013-04-25 00:11:00,
2013-04-24 20:16:00,67.5,0.0,29.91,North,0,1.0,11.0,0,0.00,,,0.00,Weather View 32 v70,2013-04-25 00:16:00,
2013-04-24 20:21:00,67.5,0.0,29.92,West,270,1.0,11.0,0,0.00,,,0.00,Weather View 32 v70,2013-04-25 00:21:00,
2013-04-24 20:26:00,67.6,0.0,29.92,South,180,2.0,11.0,0,0.00,,,0.00,Weather View 32 v70,2013-04-25 00:26:00,
2013-04-24 20:32:00,67.6,0.0,29.92,West,270,2.0,11.0,0,0.00,,,0.00,Weather View 32 v70,2013-04-25 00:32:00,
2013-04-24 20:37:00,67.6,0.0,29.93,North,0,3.0,11.0,0,0.00,,,0.00,Weather View 32 v70,2013-04-25 00:37:00,
2013-04-24 20:42:00,67.5,0.0,29.93,North,0,3.0,10.0,0,0.00,,,0.00,Weather View 32 v70,2013-04-25 00:42:00,
2013-04-24 20:47:00,67.3,0.0,29.92,North,0,6.0,9.0,0,0.00,,,0.00,Weather View 32 v70,2013-04-25 00:47:00,
2013-04-24 20:52:00,67.1,0.0,29.93,North,0,2.0,9.0,0,0.00,,,0.00,Weather View 32 v70,2013-04-25 00:52:00,
2013-04-24 20:58:00,66.9,0.0,29.93,North,0,1.0,9.0,0,0.00,,,0.00,Weather View 32 v70,2013-04-25 00:58:00,
2013-04-24 21:03:00,66.7,0.0,29.92,West,270,0.0,9.0,0,0.00,,,0.00,Weather View 32 v70,2013-04-25 01:03:00,
2013-04-24 21:08:00,66.6,0.0,29.93,North,0,0.0,9.0,0,0.00,,,0.00,Weather View 32 v70,2013-04-25 01:08:00,
2013-04-24 21:13:00,66.4,0.0,29.94,West,270,0.0,9.0,0,0.00,,,0.00,Weather View 32 v70,2013-04-25 01:13:00,
2013-04-24 21:19:00,66.2,0.0,29.94,North,0,2.0,9.0,0,0.00,,,0.00,Weather View 32 v70,2013-04-25 01:19:00,
2013-04-24 21:24:00,65.8,0.0,29.94,West,270,0.0,9.0,0,0.00,,,0.00,Weather View 32 v70,2013-04-25 01:24:00,
2013-04-24 21:29:00,65.7,0.0,29.94,West,270,3.0,9.0,0,0.00,,,0.00,Weather View 32 v70,2013-04-25 01:29:00,
2013-04-24 21:34:00,65.5,0.0,29.94,West,270,0.0,9.0,0,0.00,,,0.00,Weather View 32 v70,2013-04-25 01:34:00,
2013-04-24 21:39:00,65.1,0.0,29.94,North,0,0.0,9.0,0,0.00,,,0.00,Weather View 32 v70,2013-04-25 01:39:00,
2013-04-24 21:44:00,65.1,0.0,29.94,North,0,2.0,9.0,0,0.00,,,0.00,Weather View 32 v70,2013-04-25 01:44:00,
2013-04-24 21:49:00,64.8,0.0,29.94,North,0,3.0,9.0,0,0.00,,,0.00,Weather View 32 v70,2013-04-25 01:49:00,
2013-04-24 21:55:00,64.6,0.0,29.95,South,180,3.0,8.0,0,0.00,,,0.00,Weather View 32 v70,2013-04-25 01:55:00,
2013-04-24 22:00:00,64.4,0.0,29.94,West,270,1.0,8.0,0,0.00,,,0.00,Weather View 32 v70,2013-04-25 02:00:00,
2013-04-24 22:05:00,64.2,0.0,29.95,West,270,3.0,8.0,0,0.00,,,0.00,Weather View 32 v70,2013-04-25 02:05:00,
2013-04-24 22:10:00,64.0,0.0,29.94,South,180,3.0,8.0,0,0.00,,,0.00,Weather View 32 v70,2013-04-25 02:10:00,
2013-04-24 22:15:00,64.0,0.0,29.94,North,0,2.0,7.0,0,0.00,,,0.00,Weather View 32 v70,2013-04-25 02:15:00,
2013-04-24 22:20:00,63.9,0.0,29.94,West,270,1.0,7.0,0,0.00,,,0.00,Weather View 32 v70,2013-04-25 02:20:00,
2013-04-24 22:25:00,63.7,0.0,29.94,North,0,2.0,7.0,0,0.00,,,0.00,Weather View 32 v70,2013-04-25 02:25:00,
2013-04-24 22:30:00,63.5,0.0,29.95,West,270,0.0,6.0,0,0.00,,,0.00,Weather View 32 v70,2013-04-25 02:30:00,
2013-04-24 22:35:00,63.3,0.0,29.93,North,0,0.0,6.0,0,0.00,,,0.00,Weather View 32 v70,2013-04-25 02:35:00,
2013-04-24 22:40:00,63.0,0.0,29.93,North,0,0.0,6.0,0,0.00,,,0.00,Weather View 32 v70,2013-04-25 02:40:00,
2013-04-24 22:45:00,62.8,0.0,29.93,North,0,3.0,6.0,0,0.00,,,0.00,Weather View 32 v70,2013-04-25 02:45:00,
2013-04-24 22:50:00,62.6,0.0,29.93,North,0,1.0,6.0,0,0.00,,,0.00,Weather View 32 v70,2013-04-25 02:50:00,
2013-04-24 22:55:00,62.6,0.0,29.93,West,270,2.0,6.0,0,0.00,,,0.00,Weather View 32 v70,2013-04-25 02:55:00,
2013-04-24 23:00:00,62.4,0.0,29.94,West,270,2.0,6.0,0,0.00,,,0.00,Weather View 32 v70,2013-04-25 03:00:00,
2013-04-24 23:05:00,62.2,0.0,29.93,North,0,3.0,6.0,0,0.00,,,0.00,Weather View 32 v70,2013-04-25 03:05:00,
2013-04-24 23:10:00,62.4,0.0,29.93,West,270,0.0,6.0,0,0.00,,,0.00,Weather View 32 v70,2013-04-25 03:10:00,
2013-04-24 23:15:00,62.1,0.0,29.93,West,270,0.0,6.0,0,0.00,,,0.00,Weather View 32 v70,2013-04-25 03:15:00,
2013-04-24 23:20:00,61.7,0.0,29.94,West,270,0.0,6.0,0,0.00,,,0.00,Weather View 32 v70,2013-04-25 03:20:00,
2013-04-24 23:25:00,61.5,0.0,29.93,West,270,0.0,6.0,0,0.00,,,0.00,Weather View 32 v70,2013-04-25 03:25:00,
2013-04-24 23:30:00,61.3,0.0,29.94,West,270,0.0,5.0,0,0.00,,,0.00,Weather View 32 v70,2013-04-25 03:30:00,
2013-04-24 23:35:00,60.8,0.0,29.93,West,270,0.0,5.0,0,0.00,,,0.00,Weather View 32 v70,2013-04-25 03:35:00,
2013-04-24 23:40:00,61.0,0.0,29.93,North,0,1.0,5.0,0,0.00,,,0.00,Weather View 32 v70,2013-04-25 03:40:00,
2013-04-24 23:45:00,60.8,0.0,29.93,South,180,2.0,5.0,0,0.00,,,0.00,Weather View 32 v70,2013-04-25 03:45:00,
2013-04-24 23:50:00,60.6,0.0,29.93,North,0,0.0,5.0,0,0.00,,,0.00,Weather View 32 v70,2013-04-25 03:50:00,
2013-04-24 23:55:00,60.6,0.0,29.93,West,270,0.0,5.0,0,0.00,,,0.00,Weather View 32 v70,2013-04-25 03:55:00,